Torna al catalogo

STARLINK-31189

AttivoComunicazioniVLEO
NORAD 58787·PAYLOAD·🇺🇸 United States

Lanciato Jan 15, 2024 da Cape Canaveral Space Force Station

Loading…

Prossimi Passaggi (prossime 24 ore)

TLE

AggiornatoSource: CelesTrak SupGP

Epoca: Sep 15, 2026, 03:28 UTC

1 58787C 24012A   26258.14493056  .00006795  00000+0  24613-3 0  2582
2 58787  43.0001 174.9443 0001408 269.7546 136.5766 15.27571418    15

Traccia STARLINK-31189 in tempo reale con AllMySat

Download on the App Store